Total_Precipitation_Accumulation
1.06 1.13 1.22 1.26 1.13 0.92 0.81 0.72 0.64 0.57 0.51 0.41 0.20 0.07 0.06 0.04 0.03 0.02 0.01 0.02 0.03 0.03 0.02 0.02 0.02 0.02 0.02 0.02 0.01 0.01 0.01 0.01 0.01 0.01 0.01 0.01 0.01 0.02
0.84 0.91 0.95 1.01 1.14 1.09 0.93 0.85 0.74 0.62 0.53 0.43 0.36 0.18 0.15 0.10 0.07 0.04 0.03 0.03 0.03 0.02 0.02 0.02 0.02 0.01 0.01 0.01 0.01 0.01 0.01 0.01 0.01 0.01 0.01 0.01 0.01 0.01
0.52 0.60 0.71 0.90 1.13 1.16 1.09 0.96 0.86 0.75 0.61 0.50 0.37 0.22 0.22 0.20 0.16 0.09 0.04 0.03 0.03 0.02 0.02 0.02 0.01 0.01 0.01 0.01 0.01 0.01 0.01 0.01 0.01 0.01 0.01 0.01 0.01 0.01
0.38 0.42 0.54 0.78 1.04 1.18 1.24 1.17 1.03 0.90 0.85 0.75 0.52 0.30 0.26 0.30 0.33 0.26 0.15 0.09 0.07 0.07 0.07 0.05 0.03 0.02 0.02 0.02 0.01 0.02 0.02 0.01 0.01 0.01 0.02 0.02 0.02 0.02
0.45 0.45 0.45 0.57 0.78 0.97 1.09 1.14 1.09 1.03 1.03 0.89 0.67 0.50 0.41 0.32 0.29 0.26 0.22 0.21 0.17 0.17 0.22 0.22 0.17 0.12 0.09 0.06 0.05 0.04 0.03 0.04 0.04 0.03 0.04 0.04 0.03 0.03
0.41 0.41 0.40 0.40 0.50 0.64 0.79 0.91 1.03 1.14 1.17 1.08 0.88 0.64 0.58 0.42 0.30 0.28 0.28 0.28 0.27 0.24 0.24 0.29 0.30 0.25 0.19 0.17 0.14 0.12 0.11 0.10 0.09 0.09 0.09 0.09 0.08 0.07
0.36 0.31 0.30 0.30 0.31 0.38 0.46 0.65 0.92 1.12 1.19 1.19 1.10 0.83 0.62 0.46 0.30 0.29 0.31 0.36 0.36 0.36 0.39 0.36 0.36 0.35 0.35 0.33 0.31 0.27 0.24 0.21 0.19 0.17 0.16 0.15 0.15 0.15
0.40 0.34 0.29 0.23 0.21 0.24 0.28 0.34 0.54 0.71 0.87 0.93 0.94 0.82 0.68 0.56 0.46 0.36 0.28 0.26 0.28 0.33 0.38 0.45 0.47 0.46 0.52 0.51 0.53 0.57 0.52 0.45 0.40 0.36 0.34 0.31 0.31 0.29
0.40 0.40 0.35 0.27 0.24 0.25 0.24 0.24 0.27 0.33 0.43 0.59 0.69 0.73 0.79 0.66 0.52 0.39 0.31 0.28 0.29 0.31 0.30 0.37 0.44 0.49 0.56 0.58 0.58 0.59 0.56 0.50 0.45 0.42 0.40 0.37 0.33 0.29
0.37 0.33 0.35 0.33 0.31 0.32 0.24 0.25 0.27 0.29 0.32 0.30 0.41 0.62 0.74 0.84 0.71 0.54 0.47 0.38 0.32 0.28 0.25 0.26 0.29 0.35 0.38 0.41 0.42 0.39 0.36 0.35 0.36 0.36 0.34 0.30 0.25 0.22
0.40 0.34 0.34 0.35 0.48 0.43 0.29 0.31 0.33 0.36 0.35 0.40 0.44 0.48 0.51 0.59 0.63 0.57 0.50 0.42 0.36 0.32 0.31 0.29 0.25 0.22 0.20 0.19 0.20 0.19 0.17 0.16 0.15 0.15 0.15 0.16 0.16 0.16
0.47 0.41 0.51 0.46 0.49 0.40 0.28 0.39 0.44 0.38 0.35 0.38 0.37 0.34 0.32 0.35 0.39 0.42 0.49 0.51 0.45 0.39 0.32 0.27 0.27 0.24 0.21 0.16 0.12 0.11 0.08 0.07 0.06 0.05 0.05 0.06 0.07 0.07
0.50 0.48 0.42 0.47 0.37 0.31 0.27 0.28 0.39 0.33 0.28 0.32 0.30 0.29 0.26 0.25 0.27 0.34 0.39 0.41 0.45 0.46 0.38 0.30 0.26 0.23 0.19 0.15 0.12 0.09 0.06 0.04 0.03 0.04 0.04 0.05 0.05 0.05
0.45 0.44 0.38 0.50 0.38 0.24 0.18 0.20 0.27 0.27 0.24 0.29 0.30 0.29 0.26 0.23 0.20 0.23 0.27 0.28 0.30 0.33 0.31 0.25 0.23 0.21 0.19 0.16 0.15 0.13 0.11 0.09 0.07 0.06 0.06 0.07 0.07 0.07
0.36 0.44 0.45 0.41 0.28 0.19 0.21 0.24 0.25 0.26 0.29 0.31 0.26 0.21 0.17 0.16 0.20 0.25 0.31 0.33 0.33 0.28 0.25 0.26 0.24 0.22 0.19 0.16 0.13 0.12 0.13 0.11 0.09 0.09 0.08 0.08 0.08 0.08
0.30 0.36 0.37 0.29 0.25 0.23 0.23 0.23 0.24 0.28 0.31 0.25 0.16 0.11 0.10 0.12 0.15 0.18 0.27 0.38 0.46 0.47 0.44 0.43 0.38 0.32 0.28 0.24 0.18 0.15 0.16 0.15 0.15 0.15 0.13 0.11 0.11 0.10
0.46 0.39 0.36 0.36 0.32 0.26 0.21 0.19 0.20 0.22 0.21 0.17 0.14 0.14 0.14 0.15 0.12 0.10 0.12 0.18 0.26 0.32 0.38 0.43 0.45 0.43 0.38 0.33 0.31 0.27 0.24 0.22 0.20 0.20 0.17 0.14 0.13 0.13
0.75 0.73 0.70 0.66 0.59 0.43 0.23 0.14 0.12 0.14 0.15 0.15 0.15 0.14 0.12 0.12 0.12 0.10 0.09 0.12 0.16 0.19 0.23 0.27 0.35 0.43 0.46 0.43 0.35 0.32 0.30 0.26 0.24 0.24 0.22 0.19 0.16 0.19
0.85 0.88 0.85 0.70 0.55 0.44 0.27 0.14 0.10 0.09 0.10 0.10 0.11 0.11 0.09 0.09 0.08 0.07 0.06 0.07 0.09 0.11 0.15 0.20 0.24 0.31 0.37 0.35 0.33 0.32 0.32 0.32 0.32 0.30 0.29 0.27 0.23 0.24
0.64 0.63 0.55 0.46 0.37 0.25 0.21 0.16 0.09 0.08 0.08 0.08 0.08 0.08 0.06 0.05 0.05 0.06 0.06 0.05 0.05 0.05 0.07 0.10 0.13 0.14 0.18 0.21 0.23 0.22 0.24 0.28 0.30 0.26 0.24 0.25 0.23 0.25
0.33 0.27 0.22 0.18 0.16 0.12 0.11 0.09 0.05 0.04 0.05 0.06 0.06 0.06 0.05 0.05 0.04 0.04 0.04 0.04 0.04 0.05 0.05 0.06 0.07 0.09 0.13 0.19 0.22 0.18 0.17 0.24 0.26 0.23 0.22 0.24 0.25 0.25
0.13 0.11 0.08 0.05 0.05 0.05 0.03 0.03 0.02 0.02 0.03 0.03 0.03 0.04 0.04 0.04 0.04 0.04 0.04 0.05 0.05 0.05 0.05 0.05 0.06 0.08 0.12 0.15 0.18 0.17 0.17 0.21 0.31 0.39 0.34 0.30 0.24 0.21
0.06 0.06 0.03 0.02 0.01 0.01 0.02 0.03 0.03 0.03 0.03 0.03 0.03 0.03 0.03 0.03 0.03 0.03 0.04 0.05 0.05 0.05 0.05 0.05 0.06 0.09 0.11 0.13 0.16 0.20 0.23 0.24 0.26 0.33 0.41 0.47 0.37 0.23